Regional Weather Roundup
Issued by NWS

Home | Current Version | Previous Version | Text Only | Print | Product List | Glossary On
Versions: 1 2 3 4 5 6 7 8 9 10 11 12 13 14 15 16 17 18 19 20 21 22 23 24 25 26 27 28 29 30 31 32 33 34 35 36 37 38 39 40 41 42 43 44 45 46 47 48 49 50
000
ASUS43 KMKX 261921
RWRWI

WISCONSIN REGIONAL WEATHER ROUNDUP
NATIONAL WEATHER SERVICE MILWAUKEE/SULLIVAN WI
200 PM CDT WED APR 26 2017

NOTE: "FAIR" INDICATES FEW OR NO CLOUDS BELOW 12,000 FEET WITH NO
SIGNIFICANT WEATHER AND/OR OBSTRUCTIONS TO VISIBILITY.

WIZ001-002-006>008-014>016-023>028-262000-
NORTHWEST WISCONSIN

CITY           SKY/WX    TMP DP  RH WIND       PRES   REMARKS
SUPERIOR ARPT  LGT RAIN  34  32  93 E15G22    29.57S WCI  24
ASHLAND        MIX PCPN  33  32  96 NE20G28   29.53R FOG     WCI  21
HAYWARD        MIX PCPN  35  33  92 N13       29.49R FOG     WCI  26
SIREN          CLOUDY    35  33  91 N10G24    29.53R WCI  28
CUMBERLAND     CLOUDY    34  32  93 N10       29.47S WCI  26
RICE LAKE      CLOUDY    36  34  91 N9        29.49S WCI  29
CHETEK         CLOUDY    37  36  94 N6        29.47R WCI  32
LADYSMITH      CLOUDY    37  36  95 N9        29.46R FOG     WCI  30
EAU CLAIRE     CLOUDY    41  38  89 NW9       29.45R
MENOMONIE      CLOUDY    39  39 100 NW12      29.48R WCI  32
NEW RICHMOND   CLOUDY    38  35  89 N10       29.50R WCI  31
OSCEOLA        CLOUDY    38  38 100 N10       29.54R WCI  31
$$

WIZ003>005-009-010-017-018-262000-
NORTH CENTRAL WISCONSIN

CITY           SKY/WX    TMP DP  RH WIND       PRES   REMARKS
MANITOWISH WTR RAIN      35  35 100 N9        29.41S WCI  28
ARBOR VITAE    LGT RAIN  39  37  94 N9        29.39R WCI  33
WOODRUFF       LGT RAIN  39  37  94 N9        29.39R WCI  33
RHINELANDER    LGT RAIN  45  45 100 N6        29.38R
EAGLE RIVER    RAIN      40  40 100 N7        29.38F
LAND O LAKES   RAIN      37  37 100 N9        29.41F WCI  31
PHILLIPS       CLOUDY    36  36  99 N6        29.42R WCI  31
TOMAHAWK       DRIZZLE   42  41  95 N5        29.39R
MEDFORD        LGT RAIN  47  46  95 NW7       29.38R
MERRILL        CLOUDY    52  52 100 N6        29.37R
$$

WIZ029-030-035-036-043>047-262000-
CENTRAL WISCONSIN

CITY           SKY/WX    TMP DP  RH WIND       PRES   REMARKS
WAUSAU         CLOUDY    58  57  97 SW7       29.34R
MOSINEE        CLOUDY    57  57 100 SW12G17   29.38R
MARSHFIELD     CLOUDY    50  47  89 W15       29.38R
STEVENS POINT  CLOUDY    59  57  94 SW13G18   29.38R
WAUPACA        CLOUDY    65  60  85 S13       29.38R
WAUTOMA        CLOUDY    64  59  83 SW16      29.39
WISC RAPIDS    CLOUDY    60  57  89 W9        29.38S
CAMP DOUGLAS   DRIZZLE   57  54  88 W15G24    29.40R
$$

WIZ011>013-019>022-031-037>040-048>050-262000-
NORTHEAST WISCONSIN

CITY           SKY/WX    TMP DP  RH WIND       PRES   REMARKS
ANTIGO         CLOUDY    56  56 100 S8        29.37R
SHAWANO        CLOUDY    63  59  85 S5        29.38R
OCONTO         CLOUDY    54  52  94 S9        29.38R
STURGEON BAY   LGT RAIN  54  54 100 S12       29.40S FOG
GREEN BAY      CLOUDY    60  59  96 SE10      29.38S
MANITOWOC      CLOUDY    56  54  93 S10       29.41S
APPLETON       PTSUNNY   63  61  94 S17       29.37S
CLINTONVILLE   CLOUDY    61  59  94 S10       29.38R
OSHKOSH        CLOUDY    65  58  78 S16G24    29.39R
$$

WIZ032>034-041-042-053>061-262000-
SOUTHWEST WISCONSIN

CITY           SKY/WX    TMP DP  RH WIND       PRES   REMARKS
LA CROSSE      CLOUDY    48  45  89 NW12      29.45R
SPARTA         CLOUDY    47  46  97 NW13      29.44R FOG
VIROQUA        CLOUDY    49  49 100 W9        29.44R VSB 1/4
BOSCOBEL       CLOUDY    58  52  80 SW10      29.45R
PRAIRIE DU CHI CLOUDY    52  49  89 W13       29.48R
PLATTEVILLE    CLOUDY    55  54  98 SW13      29.47S
$$

WIZ056-057-062-063-064-067-068-262000-
SOUTH CENTRAL WISCONSIN

CITY           SKY/WX    TMP DP  RH WIND       PRES   REMARKS
REEDSBURG      CLOUDY    62  57  83 SW13G20   29.41R
BARABOO/DELLS  CLOUDY    62  56  80 SW9       29.41R
LONE ROCK      CLOUDY    60  55  83 SW12      29.44R HAZE
MINERAL POINT  CLOUDY    55  55 100 SW12      29.46R
MADISON        CLOUDY    63  58  83 SW9       29.42R
MIDDLETON      CLOUDY    64  57  77 SW10      29.44R
WATERTOWN      CLOUDY    63  62  97 SW13G18   29.44R
MONROE         CLOUDY    61  55  82 SW17G25   29.45F
JANESVILLE     CLOUDY    68  59  73 MISG      29.44S
$$

WIZ051-052-058>065-066-070>072-262000-
SOUTHEAST WISCONSIN

CITY           SKY/WX    TMP DP  RH WIND       PRES   REMARKS
MILWAUKEE      PTSUNNY   71  61  70 SW21G26   29.45S
WAUKESHA       CLOUDY    63  57  82 SW12G20   29.46R
MILWAUKEE/TIMM PTSUNNY   64  55  72 SW13G23   29.45R
RACINE         PTSUNNY   72  57  59 W14G22    29.46S
KENOSHA        PTSUNNY   71  58  63 SW14G23   29.44F
FOND DU LAC    CLOUDY    63  57  81 S14       29.41R
SHEBOYGAN      CLOUDY    64  60  87 SW22      29.43R FOG
WEST BEND      CLOUDY    63  61  94 SW14      29.44R
JUNEAU         CLOUDY    61  58  91 S12G18    29.45R
$$

LSZ147-162-262000-
LAKE SUPERIOR

STATION/POSITION TIME  TEMP    WIND        PRES    WAVE
                       AIR SEA DIR/SP/G            HT/PER
                 (UTC) (F)     (DEG/KT/KT) (MB)    (FT/S)
DEVILS ISLAND    1900   32      30/ 27/ 32 1001.6F
PORT WING        1830   33      40/ 26/ 33 1001.0F
SAXON HARBOR     1906   34      40/ 25/ 27  999.3
$$

LMZ867-665-643>646-262000-
LAKE MICHIGAN

STATION/POSITION TIME  TEMP    WIND        PRES    WAVE
                       AIR SEA DIR/SP/G            HT/PER
                 (UTC) (F)     (DEG/KT/KT) (MB)    (FT/S)
CHAMBERS ISLAND  1840   54     140/  7/ 17  994.9S
N MID LAKE BUOY  1850   45 37   70/  2/  4  997.4R   2/ 3
NORTHPORT PIER   1840   47     140/  9/ 12  995.6F
KEWAUNEE LAKESHO 1854   48     180/ 10/ 12  995.8S
SHEBOYGAN LAKESH 1900   51     170/ 14/ 15  996.0F
PORT WASHINGTON  1830   53     200/  7/  9  997.3F
MILWAUKEE LAKESH 1900   67     230/ 18/ 20   N/A
S MID LAKE BUOY  1850   50 41  220/  8/  8  998.1R   1/ 4
KENOSHA   LAKESH 1900   71     230/  7/ 19  997.3
$$

TC  - TEMPERATURE IN CELSIUS
VSB - VISIBILITY IN STATUTE MILES
WCI - WIND CHILL INDEX
HX  - HEAT INDEX




USA.gov is the U.S. government's official web portal to all federal, state and local government web resources and services.